When you browse on this site, cookies collect data to enhance your experience and personalize the content and advertising you see.
Visit our Privacy Policy to learn more. By continuing to use the site, you agree to this use of cookies and data.
  • en France
  • Liste des pays
  • À 7 jours
  • Température de l'eau
  • Carte satellitaire
  • Carte météo
  • Widgets météo
  • user-avatar
    Se connecter

    Météo par heure à Filippkovo

    Ce jour, 16 Janvier, Mercredi

    Heure Température Précipitation Vent Pression Humidité
    00:00 -8°C° 0 mm 3 m/s 735 mmHg 94%
    01:00 -7°C° 0 mm 2 m/s 735 mmHg 94%
    02:00 -7°C° 0 mm 2 m/s 735 mmHg 94%
    03:00 -7°C° 0 mm 2 m/s 735 mmHg 94%
    04:00 -7°C° 0 mm 2 m/s 736 mmHg 95%
    05:00 -7°C° 0 mm 2 m/s 736 mmHg 95%
    06:00 -7°C° 0 mm 2 m/s 736 mmHg 95%
    07:00 -7°C° 0 mm 2 m/s 737 mmHg 95%
    08:00 -7°C° 0 mm 2 m/s 737 mmHg 96%
    09:00 -6°C° 0 mm 2 m/s 737 mmHg 94%
    10:00 -7°C° 0 mm 3 m/s 738 mmHg 93%
    11:00 -6°C° 0 mm 3 m/s 738 mmHg 92%
    12:00 -6°C° 0.1 mm 3 m/s 739 mmHg 90%
    13:00 -6°C° 0.1 mm 3 m/s 739 mmHg 89%
    14:00 -7°C° 0.1 mm 4 m/s 740 mmHg 88%
    15:00 -6°C° 0 mm 3 m/s 740 mmHg 88%
    16:00 -7°C° 0 mm 3 m/s 740 mmHg 88%
    17:00 -7°C° 0 mm 3 m/s 741 mmHg 88%
    18:00 -8°C° 0 mm 3 m/s 741 mmHg 90%
    19:00 -8°C° 0 mm 3 m/s 741 mmHg 91%
    20:00 -8°C° 0 mm 2 m/s 742 mmHg 92%
    21:00 -9°C° 0 mm 2 m/s 742 mmHg 93%
    22:00 -10°C° 0 mm 2 m/s 742 mmHg 94%
    23:00 -12°C° 0 mm 2 m/s 742 mmHg 96%

    Demain, 17 Janvier, Jeudi

    Heure Température Précipitation Vent Pression Humidité
    00:00 -10°C° 0 mm 2 m/s 741 mmHg 95%
    01:00 -10°C° 0 mm 3 m/s 741 mmHg 94%
    02:00 -9°C° 0 mm 3 m/s 740 mmHg 93%
    03:00 -9°C° 0.4 mm 4 m/s 739 mmHg 93%
    04:00 -8°C° 0.4 mm 4 m/s 738 mmHg 92%
    05:00 -7°C° 0.4 mm 5 m/s 737 mmHg 92%
    06:00 -6°C° 0.6 mm 5 m/s 736 mmHg 91%
    07:00 -5°C° 0.6 mm 5 m/s 735 mmHg 91%
    08:00 -2°C° 0.6 mm 5 m/s 734 mmHg 90%
    09:00 -2°C° 0.5 mm 5 m/s 734 mmHg 92%
    10:00 -1°C° 0.5 mm 5 m/s 734 mmHg 93%
    11:00 0°C° 0.5 mm 5 m/s 733 mmHg 94%
    12:00 0°C° 0.3 mm 5 m/s 733 mmHg 94%
    13:00 0°C° 0.3 mm 5 m/s 732 mmHg 94%
    14:00 0°C° 0.3 mm 5 m/s 732 mmHg 94%
    15:00 0°C° 0.8 mm 5 m/s 731 mmHg 93%
    16:00 0°C° 0.8 mm 5 m/s 730 mmHg 91%
    17:00 0°C° 0.8 mm 5 m/s 729 mmHg 90%
    18:00 -1°C° 0.5 mm 6 m/s 729 mmHg 88%
    19:00 -1°C° 0.5 mm 6 m/s 729 mmHg 86%
    20:00 -1°C° 0.5 mm 7 m/s 728 mmHg 85%
    21:00 -1°C° 0.6 mm 7 m/s 729 mmHg 85%
    22:00 -1°C° 0.6 mm 7 m/s 729 mmHg 86%
    23:00 -1°C° 0.6 mm 7 m/s 730 mmHg 86%

    Après-demain, 18 Janvier, Vendredi

    Heure Température Précipitation Vent Pression Humidité
    00:00 -3°C° 0.1 mm 6 m/s 731 mmHg 86%
    01:00 -5°C° 0.1 mm 5 m/s 733 mmHg 87%
    02:00 -6°C° 0.1 mm 5 m/s 734 mmHg 87%
    03:00 -7°C° 0 mm 4 m/s 735 mmHg 88%
    04:00 -7°C° 0 mm 3 m/s 736 mmHg 89%
    05:00 -8°C° 0 mm 3 m/s 737 mmHg 89%
    06:00 -8°C° 0 mm 2 m/s 737 mmHg 91%
    07:00 -8°C° 0 mm 1 m/s 737 mmHg 93%
    08:00 -10°C° 0 mm 1 m/s 738 mmHg 94%
    09:00 -9°C° 0 mm 1 m/s 738 mmHg 94%
    10:00 -8°C° 0 mm 1 m/s 738 mmHg 94%
    11:00 -7°C° 0 mm 1 m/s 738 mmHg 93%
    12:00 -8°C° 0.1 mm 2 m/s 738 mmHg 92%
    13:00 -8°C° 0.1 mm 2 m/s 738 mmHg 90%
    14:00 -9°C° 0.1 mm 3 m/s 739 mmHg 89%
    15:00 -9°C° 0 mm 3 m/s 740 mmHg 89%
    16:00 -9°C° 0 mm 3 m/s 740 mmHg 88%
    17:00 -10°C° 0 mm 3 m/s 741 mmHg 88%
    18:00 -10°C° 0 mm 3 m/s 742 mmHg 89%
    19:00 -12°C° 0 mm 3 m/s 742 mmHg 91%
    20:00 -13°C° 0 mm 3 m/s 743 mmHg 93%
    21:00 -12°C° 0.1 mm 3 m/s 743 mmHg 92%
    22:00 -9°C° 0.1 mm 3 m/s 743 mmHg 92%
    23:00 -9°C° 0.1 mm 4 m/s 743 mmHg 92%

    19 Janvier, Samedi

    Heure Température Précipitation Vent Pression Humidité
    00:00 -9°C° 0.1 mm 4 m/s 743 mmHg 90%
    01:00 -8°C° 0.1 mm 4 m/s 744 mmHg 89%
    02:00 -7°C° 0.1 mm 3 m/s 744 mmHg 88%
    03:00 -8°C° 0 mm 3 m/s 744 mmHg 88%
    04:00 -8°C° 0 mm 3 m/s 745 mmHg 89%
    05:00 -9°C° 0 mm 3 m/s 745 mmHg 90%
    06:00 -9°C° 0 mm 3 m/s 746 mmHg 90%
    07:00 -9°C° 0 mm 3 m/s 746 mmHg 91%
    08:00 -10°C° 0 mm 3 m/s 746 mmHg 92%
    09:00 -9°C° 0 mm 3 m/s 747 mmHg 92%
    10:00 -8°C° 0 mm 3 m/s 747 mmHg 91%
    11:00 -6°C° 0 mm 3 m/s 747 mmHg 91%
    12:00 -7°C° 0 mm 4 m/s 747 mmHg 88%
    13:00 -7°C° 0 mm 4 m/s 748 mmHg 86%
    14:00 -7°C° 0 mm 4 m/s 748 mmHg 83%
    15:00 -7°C° 0 mm 4 m/s 748 mmHg 84%
    16:00 -7°C° 0 mm 4 m/s 748 mmHg 85%
    17:00 -8°C° 0 mm 4 m/s 748 mmHg 86%
    18:00 -8°C° 0 mm 4 m/s 748 mmHg 87%
    19:00 -8°C° 0 mm 4 m/s 748 mmHg 87%
    20:00 -8°C° 0 mm 4 m/s 748 mmHg 88%
    21:00 -8°C° 0 mm 4 m/s 748 mmHg 90%
    22:00 -8°C° 0 mm 3 m/s 748 mmHg 91%
    23:00 -8°C° 0 mm 3 m/s 748 mmHg 92%

    20 Janvier, Dimanche

    Heure Température Précipitation Vent Pression Humidité
    00:00 -9°C° 0 mm 3 m/s 749 mmHg 93%
    01:00 -9°C° 0 mm 2 m/s 749 mmHg 94%
    02:00 -9°C° 0 mm 2 m/s 749 mmHg 96%
    03:00 -9°C° 0 mm 2 m/s 749 mmHg 96%
    04:00 -9°C° 0 mm 2 m/s 749 mmHg 96%
    05:00 -9°C° 0 mm 2 m/s 750 mmHg 96%
    06:00 -9°C° 0 mm 2 m/s 750 mmHg 96%
    07:00 -9°C° 0 mm 2 m/s 750 mmHg 96%
    08:00 -10°C° 0 mm 2 m/s 750 mmHg 96%
    09:00 -9°C° 0 mm 2 m/s 750 mmHg 95%
    10:00 -8°C° 0 mm 2 m/s 750 mmHg 94%
    11:00 -7°C° 0 mm 2 m/s 750 mmHg 93%
    12:00 -7°C° 0 mm 2 m/s 749 mmHg 94%
    13:00 -7°C° 0 mm 2 m/s 749 mmHg 94%
    14:00 -6°C° 0 mm 2 m/s 749 mmHg 94%
    15:00 -6°C° 0.1 mm 1 m/s 749 mmHg 95%
    16:00 -6°C° 0.1 mm 1 m/s 749 mmHg 95%
    17:00 -6°C° 0.1 mm 1 m/s 749 mmHg 96%
    18:00 -7°C° 0 mm 1 m/s 749 mmHg 96%
    19:00 -8°C° 0 mm 1 m/s 749 mmHg 97%
    20:00 -9°C° 0 mm 1 m/s 749 mmHg 97%
    21:00 -8°C° 0 mm 1 m/s 749 mmHg 97%
    22:00 -8°C° 0 mm 1 m/s 749 mmHg 97%
    23:00 -8°C° 0 mm 1 m/s 750 mmHg 97%

    21 Janvier, Lundi

    Heure Température Précipitation Vent Pression Humidité
    00:00 -7°C° 0.1 mm 1 m/s 750 mmHg 97%
    01:00 -7°C° 0.1 mm 1 m/s 750 mmHg 97%
    02:00 -7°C° 0.1 mm 1 m/s 750 mmHg 97%
    03:00 -7°C° 0 mm 1 m/s 750 mmHg 97%
    04:00 -7°C° 0 mm 1 m/s 751 mmHg 97%
    05:00 -7°C° 0 mm 1 m/s 751 mmHg 97%
    06:00 -8°C° 0 mm 1 m/s 751 mmHg 96%
    07:00 -9°C° 0 mm 2 m/s 752 mmHg 95%
    08:00 -9°C° 0 mm 2 m/s 752 mmHg 95%
    09:00 -9°C° 0 mm 2 m/s 752 mmHg 94%
    10:00 -12°C° 0 mm 3 m/s 753 mmHg 94%
    11:00 -13°C° 0 mm 3 m/s 753 mmHg 93%
    12:00 -13°C° 0 mm 3 m/s 753 mmHg 92%
    13:00 -14°C° 0 mm 3 m/s 753 mmHg 92%
    14:00 -14°C° 0 mm 3 m/s 754 mmHg 91%
    15:00 -13°C° 0 mm 2 m/s 754 mmHg 92%
    16:00 -14°C° 0 mm 2 m/s 754 mmHg 93%
    17:00 -14°C° 0 mm 2 m/s 755 mmHg 94%
    18:00 -14°C° 0 mm 2 m/s 755 mmHg 94%
    19:00 -15°C° 0 mm 2 m/s 755 mmHg 95%
    20:00 -15°C° 0 mm 2 m/s 756 mmHg 95%
    21:00 -15°C° 0 mm 2 m/s 756 mmHg 96%
    22:00 -16°C° 0 mm 2 m/s 756 mmHg 96%
    23:00 -16°C° 0 mm 2 m/s 757 mmHg 97%
    Voir plus